LiveATC.Net - Listen to live air traffic control over the Internet!
Airport/ARTCC Code
Frequency Search
(e.g., 124.400, 128.75)
Site-wide search
 


Browse Feeds
Top 50 Feeds
Coverage Map
Bad Weather Areas

LiveATC FAQ
Offer LiveATC feed
Contact LiveATC.net
Press Inquiries

LiveATC on iPhone
LiveATC on Android

Windows Phone
Windows 8/10

LiveATC Mobile
(Mobile browser)

ATC Audio Archives
Interesting Recordings

LiveATC Forums

Home Page
About LiveATC.net
Make a Donation
Terms of Use
Privacy Policy

Canadian Air Freqs

AIRMETs/SIGMETs

FAA Airport Status
Nat'l Airspace Status
Arrival Demand Charts


Server Software By:
Icecast.org
Liquidsoap

Select an area of interest:
U.S. Feeds: Class B Airports | Class C Airports | Class D/Other Airports | ARTCC (Centers)
International Feeds: Canada | Europe | Oceania | Asia | South America | North/Central America | Africa
Misc Feeds: HF Feeds
Search by ICAO/IATA airport code:   (e.g., kbos, kjfk, lax, eham, etc.)


Currently Available Live Feeds: 2562
Status Updated: Wed Aug 05 2020 19:43:04 UTC


NOTICE

Unauthorized use prohibited. See LiveATC.net Terms of Service

Canada Airport Feeds

 

CEN4 CTAF (Archives)
High River, Alberta, Canada

Feed Status: UP
Listen in your browser - HTML5 player(in browser, HTML5)
Click here to listen with your own player(launches your MP3 player)

CEN4 Flight Activity (Flightaware)

Listeners: 0 out of 1273 total

High River CTAF: 123.000

CES4 CTAF
Westlock, Alberta, Canada

Feed Status: DOWN
Offline since: 2020-06-14 07:55:38 UTC

METAR NOT AVAILABLE

Westlock CTAF: 122.800

CES4 Emergency/Guard
Westlock, Alberta, Canada

Feed Status: DOWN
Offline since: 2020-06-14 07:55:38 UTC

METAR NOT AVAILABLE

Emergency/Guard: 121.500

CKK7 CTAF (Archives)
Steinbach, Manitoba, Canada

Feed Status: UP
Listen in your browser - HTML5 player(in browser, HTML5)
Click here to listen with your own player(launches your MP3 player)

CKK7 Flight Activity (Flightaware)

Listeners: 0 out of 1273 total

Steinbach CTAF: 122.700

CNC3 CTAF #2 (Archives)
Brampton, Ontario, Canada

Feed Status: UP
Listen in your browser - HTML5 player(in browser, HTML5)
Click here to listen with your own player(launches your MP3 player)

CYKZ 030900Z 25004KT 15SM SCT040 M03/M05 A2985 RMK SC3 LAST STFD OBS FAREWELL SLP118

CYKZ Flight Activity (Flightaware)

Listeners: 0 out of 1273 total

Brampton CTAF: 123.300

CNQ3 CTAF (Air Race End)
Welland, Ontario, Canada

Feed Status: DOWN
Offline since: 2019-06-28 16:08:02 UTC

Welland CTAF: 123.500

CNU8 CTAF (Archives)
Markham, Ontario, Canada

Feed Status: UP
Listen in your browser - HTML5 player(in browser, HTML5)
Click here to listen with your own player(launches your MP3 player)

CYKZ 030900Z 25004KT 15SM SCT040 M03/M05 A2985 RMK SC3 LAST STFD OBS FAREWELL SLP118

CYKZ Flight Activity (Flightaware)

Listeners: 0 out of 1273 total

Markham UNICOM: 122.800

CNU8 Unicom/Airwork Area (Archives)
Markham, Ontario, Canada

Feed Status: UP
Listen in your browser - HTML5 player(in browser, HTML5)
Click here to listen with your own player(launches your MP3 player)

CNU8 Flight Activity (Flightaware)

Listeners: 0 out of 1273 total

Airwork CFA Sector #1 Northeast: 122.900
Markham UNICOM: 122.800

CNZ8 CTAF
Grimsby, Ontario, Canada

Feed Status: DOWN
Offline since: 2020-01-23 18:39:22 UTC

LWIS CNZ8 051928Z AUTO ///// 17/04 A3003 RMK SLP183 ADVISORY ONLY=

Grimsby CTAF: 123.350

CSB3 CTAF (Archives)
St-Mathieu-De-Beloeil, Quebec, Canada

Feed Status: UP
Listen in your browser - HTML5 player(in browser, HTML5)
Click here to listen with your own player(launches your MP3 player)

CSB3 Flight Activity (Flightaware)

Listeners: 0 out of 1273 total

St-Mathieu-De-Beloeil CTAF: 122.700

CSR3 CTAF (Archives)
Victoriaville, Quebec, Canada

Feed Status: UP
Listen in your browser - HTML5 player(in browser, HTML5)
Click here to listen with your own player(launches your MP3 player)

CSR3 Flight Activity (Flightaware)

Listeners: 0 out of 1273 total

Victoriaville CTAF/UNICOM: 123.350

CYRQ/CSR3 CTAF (Archives)
Victoriaville, Quebec, Canada

Feed Status: UP
Listen in your browser - HTML5 player(in browser, HTML5)
Click here to listen with your own player(launches your MP3 player)

CYRQ 051900Z AUTO 23014G30KT 9SM FEW042 25/17 A2983 RMK SLP102 DENSITY ALT 1500FT

CYRQ Flight Activity (Flightaware)

Listeners: 0 out of 1273 total

Trois-Rivieres CTAF/UNICOM: 122.350
Victoriaville CTAF/UNICOM: 123.350

CYAM ATIS (Archives)
Sault Ste. Marie, Ontario, Canada

Feed Status: UP
Listen in your browser - HTML5 player(in browser, HTML5)
Click here to listen with your own player(launches your MP3 player)

CYAM 051900Z 31009KT 25SM FEW045 SCT210 20/09 A3003 RMK CU2CS1 SLP171 DENSITY ALT 1300FT

CYAM Flight Activity (Flightaware)

Listeners: 0 out of 1273 total

Sault ATIS: 133.050

CYAM Ground/Misc (Archives)
Sault Ste. Marie, Ontario, Canada

Feed Status: UP
Listen in your browser - HTML5 player(in browser, HTML5)
Click here to listen with your own player(launches your MP3 player)

CYAM 051900Z 31009KT 25SM FEW045 SCT210 20/09 A3003 RMK CU2CS1 SLP171 DENSITY ALT 1300FT

CYAM Flight Activity (Flightaware)

Listeners: 0 out of 1273 total

London FIC: 123.475
London FIC: 126.700
Sault College: 130.700
Sault Ground: 121.700

CYAM Tower (Archives)
Sault Ste. Marie, Ontario, Canada

Feed Status: UP
Listen in your browser - HTML5 player(in browser, HTML5)
Click here to listen with your own player(launches your MP3 player)

CYAM 051900Z 31009KT 25SM FEW045 SCT210 20/09 A3003 RMK CU2CS1 SLP171 DENSITY ALT 1300FT

CYAM Flight Activity (Flightaware)

Listeners: 1 out of 1273 total

Sault Ste. Marie Tower: 118.800

Toronto Center (Sault High) (Archives)
Sault Ste. Marie, Ontario, Canada

Feed Status: UP
Listen in your browser - HTML5 player(in browser, HTML5)
Click here to listen with your own player(launches your MP3 player)

CZYZ Flight Activity (Flightaware)

Listeners: 0 out of 1273 total

Toronto Center (Sault High Sector): 134.425

Toronto Center (Sault Low) (Archives)
Sault Ste. Marie, Ontario, Canada

Feed Status: UP
Listen in your browser - HTML5 player(in browser, HTML5)
Click here to listen with your own player(launches your MP3 player)

CZYZ Flight Activity (Flightaware)

Listeners: 0 out of 1273 total

Toronto Center (Sault Low Sector): 132.650

CYAV CTAF/Center (Archives)
Winnipeg, Manitoba, Canada

Feed Status: UP
Listen in your browser - HTML5 player(in browser, HTML5)
Click here to listen with your own player(launches your MP3 player)

CYAV Flight Activity (Flightaware)

Listeners: 2 out of 1273 total

St. Andrews Ground: 121.800
St. Andrews Tower: 118.500
Winnipeg Center: 118.000
Winnipeg Center: 121.000

CYAW ATIS
Halifax, Nova Scotia, Canada

Feed Status: DOWN
Offline since: 2020-08-05 18:56:05 UTC

Shearwater ATIS: 129.175

CYAW Gnd/Twr/Ops
Halifax, Nova Scotia, Canada

Feed Status: DOWN
Offline since: 2020-08-05 18:53:05 UTC

Shearwater FDC/Ops: 239.300
Shearwater Ground: 149.350
Shearwater Ground: 121.700
Shearwater Ground: 250.100
Shearwater Tower: 231.950
Shearwater Tower: 126.200
Shearwater Tower: 340.200

CYBP - Brooks (Archives)
Brooks, Alberta, Canada

Feed Status: UP
Listen in your browser - HTML5 player(in browser, HTML5)
Click here to listen with your own player(launches your MP3 player)

CYBP Flight Activity (Flightaware)

Listeners: 0 out of 1273 total

Brooks UNICOM: 122.800
Edmonton Center (North): 132.650
Edmonton Center (South): 125.050

CYBW Tower (Inner) (Archives)
Calgary, Alberta, Canada

Feed Status: UP
Listen in your browser - HTML5 player(in browser, HTML5)
Click here to listen with your own player(launches your MP3 player)

CYBW 051900Z AUTO 12011KT 9SM CLR 26/11 A2994 RMK SLP128 DENSITY ALT 6000FT

CYBW Flight Activity (Flightaware)

Listeners: 0 out of 1273 total

Springback Tower (Inner): 120.700

CYBW Tower (Outer) (Archives)
Calgary, Alberta, Canada

Feed Status: UP
Listen in your browser - HTML5 player(in browser, HTML5)
Click here to listen with your own player(launches your MP3 player)

CYBW 051900Z AUTO 12011KT 9SM CLR 26/11 A2994 RMK SLP128 DENSITY ALT 6000FT

CYBW Flight Activity (Flightaware)

Listeners: 0 out of 1273 total

Springback Tower (Outer): 118.200

CYEG Approach (Archives)
Edmonton, Alberta, Canada

Feed Status: UP
Listen in your browser - HTML5 player(in browser, HTML5)
Click here to listen with your own player(launches your MP3 player)

CYEG 051900Z 17008G15KT 20SM SKC 26/15 A2987 RMK SLP114 DENSITY ALT 4300FT

CYEG Flight Activity (Flightaware)

Listeners: 0 out of 1273 total

Edmonton Approach: 120.500

CYEG Del/Ground/Misc (Archives)
Edmonton, Alberta, Canada

Feed Status: UP
Listen in your browser - HTML5 player(in browser, HTML5)
Click here to listen with your own player(launches your MP3 player)

CYEG 051900Z 17008G15KT 20SM SKC 26/15 A2987 RMK SLP114 DENSITY ALT 4300FT

CYEG Flight Activity (Flightaware)

Listeners: 0 out of 1273 total

Edmonton Clearance Delivery: 124.100
Edmonton De-Ice: 122.775
Edmonton Ground: 121.700
Edmonton Radio (FIC): 122.375
Edmonton Radio (FIC): 126.700
Edmonton Radio (FIC): 122.500
Emergency/Guard: 121.500

CYEG Departure (Archives)
Edmonton, Alberta, Canada

Feed Status: UP
Listen in your browser - HTML5 player(in browser, HTML5)
Click here to listen with your own player(launches your MP3 player)

CYEG 051900Z 17008G15KT 20SM SKC 26/15 A2987 RMK SLP114 DENSITY ALT 4300FT

CYEG Flight Activity (Flightaware)

Listeners: 0 out of 1273 total


CYEG Tower (Archives)
Edmonton, Alberta, Canada

Feed Status: UP
Listen in your browser - HTML5 player(in browser, HTML5)
Click here to listen with your own player(launches your MP3 player)

CYEG 051900Z 17008G15KT 20SM SKC 26/15 A2987 RMK SLP114 DENSITY ALT 4300FT

CYEG Flight Activity (Flightaware)

Listeners: 0 out of 1273 total

Edmonton Tower: 118.300

CYEG VFR Advisory (Archives)
Edmonton, Alberta, Canada

Feed Status: UP
Listen in your browser - HTML5 player(in browser, HTML5)
Click here to listen with your own player(launches your MP3 player)

CYEG 051900Z 17008G15KT 20SM SKC 26/15 A2987 RMK SLP114 DENSITY ALT 4300FT

CYEG Flight Activity (Flightaware)

Listeners: 0 out of 1273 total

Edmonton VFR Advisory: 119.500

CZEG Edmonton Center (FL280/below) (Archives)
Edmonton, Alberta, Canada

Feed Status: UP
Listen in your browser - HTML5 player(in browser, HTML5)
Click here to listen with your own player(launches your MP3 player)

CZEG Flight Activity (Flightaware)

Listeners: 1 out of 1273 total

Edmonton Center (ACC) (FL280 and below): 132.775

CZEG Edmonton Center (Lloydminster Sector) (Archives)
Edmonton, Alberta, Canada

Feed Status: UP
Listen in your browser - HTML5 player(in browser, HTML5)
Click here to listen with your own player(launches your MP3 player)

CZEG Flight Activity (Flightaware)

Listeners: 0 out of 1273 total

Edmonton Center (Lloydminster Sector Hi/Lo): 134.900

CYEY CTAF (Archives)
Amos, Quebec, Canada

Feed Status: UP
Listen in your browser - HTML5 player(in browser, HTML5)
Click here to listen with your own player(launches your MP3 player)

CYEY Flight Activity (Flightaware)

Listeners: 0 out of 1273 total

Amos CTAF/UNICOM: 123.000
Emergency/Guard: 121.500

CYFB CTAF/RDO (Archives)
Iqaluit, Nunavut, Canada

Feed Status: UP
Listen in your browser - HTML5 player(in browser, HTML5)
Click here to listen with your own player(launches your MP3 player)

CYFB 051900Z 31015KT 30SM FEW039 BKN066 BKN100 18/11 A2952 RMK SC1AC6AC1 SC TR SLP000 DENSITY ALT 900FT

CYFB Flight Activity (Flightaware)

Listeners: 0 out of 1273 total

Iqaluit CTAF/Radio: 122.200
Iqaluit Ramp/Taxi Control: 122.925
Quebec Radio FIC: 126.700

CYFB Montreal Center (Archives)
Iqaluit, Nunavut, Canada

Feed Status: UP
Listen in your browser - HTML5 player(in browser, HTML5)
Click here to listen with your own player(launches your MP3 player)

CYFB 051900Z 31015KT 30SM FEW039 BKN066 BKN100 18/11 A2952 RMK SC1AC6AC1 SC TR SLP000 DENSITY ALT 900FT

CYFB Flight Activity (Flightaware)

Listeners: 0 out of 1273 total

Montreal Center (Brevoort Sector FL290 and above): 132.800
Montreal Center (Nuvilik Sector FL280 and below): 134.550

CYFB RDO/FIC/Edmonton Ctr (Archives)
Iqaluit, Nunavut, Canada

Feed Status: UP
Listen in your browser - HTML5 player(in browser, HTML5)
Click here to listen with your own player(launches your MP3 player)

CYFB 051900Z 31015KT 30SM FEW039 BKN066 BKN100 18/11 A2952 RMK SC1AC6AC1 SC TR SLP000 DENSITY ALT 900FT

CYFB Flight Activity (Flightaware)

Listeners: 0 out of 1273 total

Edmonton Center (Clyde Sector FL230 and above): 118.475
Emergency/Guard: 121.500
Gander Radio: 126.900
Quebec Radio FIC: 123.275

CYFD ATF (CTAF) (Archives)
Brantford, Ontario, Canada

Feed Status: UP
Listen in your browser - HTML5 player(in browser, HTML5)
Click here to listen with your own player(launches your MP3 player)

LWIS CYFD 051928Z AUTO ///// 20/12 A3009 RMK SLP180 DENSITY ALT 1700FT ADVISORY ONLY=

CYFD Flight Activity (Flightaware)

Listeners: 1 out of 1273 total

Brantford ATF (CTAF): 122.825

CYFD ATF (CTAF)/App (Archives)
Brantford, Ontario, Canada

Feed Status: UP
Listen in your browser - HTML5 player(in browser, HTML5)
Click here to listen with your own player(launches your MP3 player)

LWIS CYFD 051928Z AUTO ///// 20/12 A3009 RMK SLP180 DENSITY ALT 1700FT ADVISORY ONLY=

CYFD Flight Activity (Flightaware)

Listeners: 0 out of 1273 total

Brantford ATF (CTAF): 122.825
Toronto Terminal (West Satellite): 119.700

CYHU Tower #1 (Archives)
Montreal, Quebec, Canada

Feed Status: UP
Listen in your browser - HTML5 player(in browser, HTML5)
Click here to listen with your own player(launches your MP3 player)

CYHU 051900Z AUTO 24016G25KT 9SM FEW035 SCT055 SCT070 BKN097 23/17 A2989 RMK SLP124 DENSITY ALT 1000FT

CYHU Flight Activity (Flightaware)

Listeners: 2 out of 1273 total

Saint-Hubert Tower: 121.300
Saint-Hubert Tower: 118.400

CYHZ ATIS (Archives)
Halifax, Nova Scotia, Canada

Feed Status: UP
Listen in your browser - HTML5 player(in browser, HTML5)
Click here to listen with your own player(launches your MP3 player)

CYHZ 051900Z 18011G18KT 15SM SCT030 SCT300 27/21 A3001 RMK CU3CI1 SLP163 DENSITY ALT 2000FT

CYHZ Flight Activity (Flightaware)

Listeners: 0 out of 1273 total

Halifax ATIS: 121.000

CYHZ Clearance Delivery (Archives)
Halifax, Nova Scotia, Canada

Feed Status: UP
Listen in your browser - HTML5 player(in browser, HTML5)
Click here to listen with your own player(launches your MP3 player)

CYHZ 051900Z 18011G18KT 15SM SCT030 SCT300 27/21 A3001 RMK CU3CI1 SLP163 DENSITY ALT 2000FT

CYHZ Flight Activity (Flightaware)

Listeners: 0 out of 1273 total

Halifax Clearance Delivery: 123.950

CYHZ Del/Gnd/Twr/App #1 (Archives)
Halifax, Nova Scotia, Canada

Feed Status: UP
Listen in your browser - HTML5 player(in browser, HTML5)
Click here to listen with your own player(launches your MP3 player)

CYHZ 051900Z 18011G18KT 15SM SCT030 SCT300 27/21 A3001 RMK CU3CI1 SLP163 DENSITY ALT 2000FT

CYHZ Flight Activity (Flightaware)

Listeners: 3 out of 1273 total

Emergency/Guard: 121.500
Halifax Arrival/Departure: 119.200
Halifax Clearance Delivery: 123.950
Halifax De-icing: 122.350
Halifax De-icing: 129.250
Halifax De-icing: 122.950
Halifax Ground: 121.900
Halifax Radio FIC: 123.275
Halifax Radio FIC (Enroute): 126.700
Halifax Terminal (backup): 128.550
Halifax Terminal VFR: 118.700
Halifax Tower: 118.400
Moncton Center PAL Low: 135.300

CYHZ Del/Gnd/Twr/App #2
Halifax, Nova Scotia, Canada

Feed Status: DOWN
Offline since: 2020-08-03 19:23:04 UTC

CYHZ 051900Z 18011G18KT 15SM SCT030 SCT300 27/21 A3001 RMK CU3CI1 SLP163 DENSITY ALT 2000FT

Emergency/Guard: 121.500
Halifax Arrival/Departure: 119.200
Halifax Clearance Delivery: 123.950
Halifax De-icing: 122.950
Halifax De-icing: 122.350
Halifax De-icing: 129.250
Halifax Ground: 121.900
Halifax Radio FIC: 123.275
Halifax Radio FIC (Enroute): 126.700
Halifax Terminal (backup): 128.550
Halifax Terminal VFR: 118.700
Halifax Tower: 118.400
Moncton Center PAL Low: 135.300

CYHZ Departure/Arrival (Archives)
Halifax, Nova Scotia, Canada

Feed Status: UP
Listen in your browser - HTML5 player(in browser, HTML5)
Click here to listen with your own player(launches your MP3 player)

CYHZ 051900Z 18011G18KT 15SM SCT030 SCT300 27/21 A3001 RMK CU3CI1 SLP163 DENSITY ALT 2000FT

CYHZ Flight Activity (Flightaware)

Listeners: 0 out of 1273 total

Halifax Arrival/Departure: 119.200

CYHZ Ground (Archives)
Halifax, Nova Scotia, Canada

Feed Status: UP
Listen in your browser - HTML5 player(in browser, HTML5)
Click here to listen with your own player(launches your MP3 player)

CYHZ 051900Z 18011G18KT 15SM SCT030 SCT300 27/21 A3001 RMK CU3CI1 SLP163 DENSITY ALT 2000FT

CYHZ Flight Activity (Flightaware)

Listeners: 0 out of 1273 total

Halifax Ground: 121.900

CYHZ Halifax Radio FIC (Archives)
Halifax, Nova Scotia, Canada

Feed Status: UP
Listen in your browser - HTML5 player(in browser, HTML5)
Click here to listen with your own player(launches your MP3 player)

CYHZ 051900Z 18011G18KT 15SM SCT030 SCT300 27/21 A3001 RMK CU3CI1 SLP163 DENSITY ALT 2000FT

CYHZ Flight Activity (Flightaware)

Listeners: 0 out of 1273 total

Halifax Radio FIC: 123.275

CYHZ Moncton Centre/A2A (Archives)
Halifax, Nova Scotia, Canada

Feed Status: UP
Listen in your browser - HTML5 player(in browser, HTML5)
Click here to listen with your own player(launches your MP3 player)

CYHZ 051900Z 18011G18KT 15SM SCT030 SCT300 27/21 A3001 RMK CU3CI1 SLP163 DENSITY ALT 2000FT

CYHZ Flight Activity (Flightaware)

Listeners: 0 out of 1273 total

Aircraft to Aircraft: 123.450
Moncton Centre High (East): 125.250
Moncton Centre High (East): 132.750
Moncton PAL High: 133.950

CYHZ Moncton PAL High (Archives)
Halifax, Nova Scotia, Canada

Feed Status: UP
Listen in your browser - HTML5 player(in browser, HTML5)
Click here to listen with your own player(launches your MP3 player)

CYHZ 051900Z 18011G18KT 15SM SCT030 SCT300 27/21 A3001 RMK CU3CI1 SLP163 DENSITY ALT 2000FT

CYHZ Flight Activity (Flightaware)

Listeners: 0 out of 1273 total

Moncton PAL High: 133.950

CYHZ Moncton PAL Low (Archives)
Halifax, Nova Scotia, Canada

Feed Status: UP
Listen in your browser - HTML5 player(in browser, HTML5)
Click here to listen with your own player(launches your MP3 player)

CYHZ 051900Z 18011G18KT 15SM SCT030 SCT300 27/21 A3001 RMK CU3CI1 SLP163 DENSITY ALT 2000FT

CYHZ Flight Activity (Flightaware)

Listeners: 0 out of 1273 total

Moncton Center PAL Low: 135.300

CYHZ Tower (Archives)
Halifax, Nova Scotia, Canada

Feed Status: UP
Listen in your browser - HTML5 player(in browser, HTML5)
Click here to listen with your own player(launches your MP3 player)

CYHZ 051900Z 18011G18KT 15SM SCT030 SCT300 27/21 A3001 RMK CU3CI1 SLP163 DENSITY ALT 2000FT

CYHZ Flight Activity (Flightaware)

Listeners: 0 out of 1273 total

Halifax Tower: 118.400

CYJN Ground/Tower
St. Jean, Quebec, Canada

Feed Status: DOWN
Offline since: 2020-08-05 01:58:22 UTC

St. Jean Ground: 121.700
St. Jean Tower: 118.200

CYKF Gnd/Twr (Archives)
Waterloo, Ontario, Canada

Feed Status: UP
Listen in your browser - HTML5 player(in browser, HTML5)
Click here to listen with your own player(launches your MP3 player)

CYKF 051900Z AUTO 27013G20KT 9SM FEW050 20/10 A3008 RMK SLP185 DENSITY ALT 1700FT

CYKF Flight Activity (Flightaware)

Listeners: 1 out of 1273 total

FBO: 123.500
Waterloo Ground: 121.800
Waterloo Tower: 126.000

CYKZ Ground/Tower (Archives)
Buttonville, Ontario, Canada

Feed Status: UP
Listen in your browser - HTML5 player(in browser, HTML5)
Click here to listen with your own player(launches your MP3 player)

CYKZ 030900Z 25004KT 15SM SCT040 M03/M05 A2985 RMK SC3 LAST STFD OBS FAREWELL SLP118

CYKZ Flight Activity (Flightaware)

Listeners: 0 out of 1273 total

Buttonville Ground: 121.800
Buttonville Tower: 124.800

CYKZ Air Amb/Toronto East (Archives)
Buttonville, Ontario, Canada

Feed Status: UP
Listen in your browser - HTML5 player(in browser, HTML5)
Click here to listen with your own player(launches your MP3 player)

CYKZ 030900Z 25004KT 15SM SCT040 M03/M05 A2985 RMK SC3 LAST STFD OBS FAREWELL SLP118

CYKZ Flight Activity (Flightaware)

Listeners: 0 out of 1273 total

Air Ambulance: 129.275
Toronto Terminal (East): 133.400

CYKZ Air Ambulance #2 (Archives)
Buttonville, Ontario, Canada

Feed Status: UP
Listen in your browser - HTML5 player(in browser, HTML5)
Click here to listen with your own player(launches your MP3 player)

CYKZ 030900Z 25004KT 15SM SCT040 M03/M05 A2985 RMK SC3 LAST STFD OBS FAREWELL SLP118

CYKZ Flight Activity (Flightaware)

Listeners: 0 out of 1273 total


CYKZ ATIS (Archives)
Buttonville, Ontario, Canada

Feed Status: UP
Listen in your browser - HTML5 player(in browser, HTML5)
Click here to listen with your own player(launches your MP3 player)

CYKZ 030900Z 25004KT 15SM SCT040 M03/M05 A2985 RMK SC3 LAST STFD OBS FAREWELL SLP118

CYKZ Flight Activity (Flightaware)

Listeners: 0 out of 1273 total

Buttonsville ATIS: 127.100

CYKZ CFA1 NE (Archives)
Buttonville, Ontario, Canada

Feed Status: UP
Listen in your browser - HTML5 player(in browser, HTML5)
Click here to listen with your own player(launches your MP3 player)

CYKZ 030900Z 25004KT 15SM SCT040 M03/M05 A2985 RMK SC3 LAST STFD OBS FAREWELL SLP118

CYKZ Flight Activity (Flightaware)

Listeners: 0 out of 1273 total

Common Frequency Area (NE): 122.900

CYKZ CFA2 NW (Archives)
Buttonville, Ontario, Canada

Feed Status: UP
Listen in your browser - HTML5 player(in browser, HTML5)
Click here to listen with your own player(launches your MP3 player)

CYKZ 030900Z 25004KT 15SM SCT040 M03/M05 A2985 RMK SC3 LAST STFD OBS FAREWELL SLP118

CYKZ Flight Activity (Flightaware)

Listeners: 0 out of 1273 total

Common Frequency Area (NW): 123.025

CYKZ Flight Plan (Archives)
Buttonville, Ontario, Canada

Feed Status: UP
Listen in your browser - HTML5 player(in browser, HTML5)
Click here to listen with your own player(launches your MP3 player)

CYKZ 030900Z 25004KT 15SM SCT040 M03/M05 A2985 RMK SC3 LAST STFD OBS FAREWELL SLP118

CYKZ Flight Activity (Flightaware)

Listeners: 0 out of 1273 total

Flight Plan: 123.150

CYKZ Flightline (Archives)
Buttonville, Ontario, Canada

Feed Status: UP
Listen in your browser - HTML5 player(in browser, HTML5)
Click here to listen with your own player(launches your MP3 player)

CYKZ 030900Z 25004KT 15SM SCT040 M03/M05 A2985 RMK SC3 LAST STFD OBS FAREWELL SLP118

CYKZ Flight Activity (Flightaware)

Listeners: 0 out of 1273 total

Flight Line: 123.500

CYKZ FlightPlan/CZYZ East (Archives)
Buttonville, Ontario, Canada

Feed Status: UP
Listen in your browser - HTML5 player(in browser, HTML5)
Click here to listen with your own player(launches your MP3 player)

CYKZ 030900Z 25004KT 15SM SCT040 M03/M05 A2985 RMK SC3 LAST STFD OBS FAREWELL SLP118

CYKZ Flight Activity (Flightaware)

Listeners: 0 out of 1273 total

CYKZ Flight Plan: 123.150
Toronto Centre East: 133.400

CYKZ Ground (Archives)
Buttonville, Ontario, Canada

Feed Status: UP
Listen in your browser - HTML5 player(in browser, HTML5)
Click here to listen with your own player(launches your MP3 player)

CYKZ 030900Z 25004KT 15SM SCT040 M03/M05 A2985 RMK SC3 LAST STFD OBS FAREWELL SLP118

CYKZ Flight Activity (Flightaware)

Listeners: 0 out of 1273 total

Buttonville Ground: 121.800

CYKZ Guard 121.5 (Archives)
Buttonville, Ontario, Canada

Feed Status: UP
Listen in your browser - HTML5 player(in browser, HTML5)
Click here to listen with your own player(launches your MP3 player)

CYKZ 030900Z 25004KT 15SM SCT040 M03/M05 A2985 RMK SC3 LAST STFD OBS FAREWELL SLP118

CYKZ Flight Activity (Flightaware)

Listeners: 0 out of 1273 total

Emergency/Guard: 121.500

CYKZ London (Archives)
Buttonville, Ontario, Canada

Feed Status: UP
Listen in your browser - HTML5 player(in browser, HTML5)
Click here to listen with your own player(launches your MP3 player)

CYKZ 030900Z 25004KT 15SM SCT040 M03/M05 A2985 RMK SC3 LAST STFD OBS FAREWELL SLP118

CYKZ Flight Activity (Flightaware)

Listeners: 0 out of 1273 total

Bulletins (London Radio): 126.700

CYKZ London Radio/Flightline (Archives)
Buttonville, Ontario, Canada

Feed Status: UP
Listen in your browser - HTML5 player(in browser, HTML5)
Click here to listen with your own player(launches your MP3 player)

CYKZ 030900Z 25004KT 15SM SCT040 M03/M05 A2985 RMK SC3 LAST STFD OBS FAREWELL SLP118

CYKZ Flight Activity (Flightaware)

Listeners: 0 out of 1273 total

Bulletins (London Radio): 126.700
Buttonville Flightline: 123.500

CYKZ Seneca Dispatch (Archives)
Buttonville, Ontario, Canada

Feed Status: UP
Listen in your browser - HTML5 player(in browser, HTML5)
Click here to listen with your own player(launches your MP3 player)

CYKZ 030900Z 25004KT 15SM SCT040 M03/M05 A2985 RMK SC3 LAST STFD OBS FAREWELL SLP118

CYKZ Flight Activity (Flightaware)

Listeners: 0 out of 1273 total

Seneca Dispatch: 122.225

CYKZ Seneca Dispatch/Backup (Archives)
Buttonville, Ontario, Canada

Feed Status: UP
Listen in your browser - HTML5 player(in browser, HTML5)
Click here to listen with your own player(launches your MP3 player)

CYKZ 030900Z 25004KT 15SM SCT040 M03/M05 A2985 RMK SC3 LAST STFD OBS FAREWELL SLP118

CYKZ Flight Activity (Flightaware)

Listeners: 0 out of 1273 total

Buttonville Tower (backup): 119.900
Seneca Dispatch: 122.225

CYKZ Toronto Term (West) (Archives)
Buttonville, Ontario, Canada

Feed Status: UP
Listen in your browser - HTML5 player(in browser, HTML5)
Click here to listen with your own player(launches your MP3 player)

CYKZ 030900Z 25004KT 15SM SCT040 M03/M05 A2985 RMK SC3 LAST STFD OBS FAREWELL SLP118

CYKZ Flight Activity (Flightaware)

Listeners: 0 out of 1273 total

Toronto Terminal (West): 119.300

CYKZ Tower (Archives)
Buttonville, Ontario, Canada

Feed Status: UP
Listen in your browser - HTML5 player(in browser, HTML5)
Click here to listen with your own player(launches your MP3 player)

CYKZ 030900Z 25004KT 15SM SCT040 M03/M05 A2985 RMK SC3 LAST STFD OBS FAREWELL SLP118

CYKZ Flight Activity (Flightaware)

Listeners: 0 out of 1273 total

Buttonville Tower: 124.800

CYKZ Tower (Backup) (Archives)
Buttonville, Ontario, Canada

Feed Status: UP
Listen in your browser - HTML5 player(in browser, HTML5)
Click here to listen with your own player(launches your MP3 player)

CYKZ 030900Z 25004KT 15SM SCT040 M03/M05 A2985 RMK SC3 LAST STFD OBS FAREWELL SLP118

CYKZ Flight Activity (Flightaware)

Listeners: 0 out of 1273 total

Buttonville Tower (backup): 119.900

CYMJ ATIS
Moose Jaw, Saskatchewan, Canada

Feed Status: DOWN
Offline since: 2020-07-28 04:01:39 UTC

CYMJ 051900Z 30008KT 15SM FEW072 27/09 A2998 RMK CU1 CU TR SLP152

Moose Jaw ATIS: 131.300

CYMJ Gnd/Twr
Moose Jaw, Saskatchewan, Canada

Feed Status: DOWN
Offline since: 2020-07-28 04:01:39 UTC

CYMJ 051900Z 30008KT 15SM FEW072 27/09 A2998 RMK CU1 CU TR SLP152

Moose Jaw Ground: 275.800
Moose Jaw Tower (Inner): 295.600
Moose Jaw Tower (Outer): 310.800

CYMX Ground/Radio (Archives)
Montreal, Quebec, Canada

Feed Status: UP
Listen in your browser - HTML5 player(in browser, HTML5)
Click here to listen with your own player(launches your MP3 player)

CYMX 051900Z 24008G18KT 190V300 45SM SCT035 SCT059 SCT085 23/16 A2989 RMK CU3SC1AC1 SC TR AC TR SLP124 DENSITY ALT 1400FT

CYMX Flight Activity (Flightaware)

Listeners: 0 out of 1273 total

Mirabel Ground: 121.800
Mirabel Radio: 119.100

CYOO Ground (Archives)
Oshawa, Ontario, Canada

Feed Status: UP
Listen in your browser - HTML5 player(in browser, HTML5)
Click here to listen with your own player(launches your MP3 player)

CYOO 051900Z AUTO 26011G19KT 200V300 9SM SCT050 BKN065 23/08 A3001 RMK SLP164 DENSITY ALT 1300FT

CYOO Flight Activity (Flightaware)

Listeners: 0 out of 1273 total

Oshawa Ground: 118.400

CYOO Tower
Oshawa, Ontario, Canada

Feed Status: DOWN
Offline since: 2020-07-22 13:57:53 UTC

CYOO 051900Z AUTO 26011G19KT 200V300 9SM SCT050 BKN065 23/08 A3001 RMK SLP164 DENSITY ALT 1300FT

Oshawa Tower: 120.100

CYOW Gnd/Twr/App (Archives)
Ottawa, Ontario, Canada

Feed Status: UP
Listen in your browser - HTML5 player(in browser, HTML5)
Click here to listen with your own player(launches your MP3 player)

CYOW 051900Z 29014KT 15SM SCT045 BKN080 23/13 A2994 RMK CU3AC2 SLP138 DENSITY ALT 1400FT

CYOW Flight Activity (Flightaware)

Listeners: 2 out of 1273 total

De-Icing (Ice Man): 122.350
De-Icing (Pad Control): 122.925
Ottawa Ground: 121.900
Ottawa Terminal: 127.700
Ottawa Terminal (Arrivals): 135.150
Ottawa Terminal (Departures): 128.175
Ottawa Tower: 118.800
Ottawa Tower: 120.100

CYPG Tower
Portage La Prairie, Manitoba, Canada

Feed Status: DOWN
Offline since: 2020-02-25 03:31:05 UTC

CYPG 051900Z 19006KT 15SM FEW044 FEW250 26/15 A2992 RMK CF1CI1 DA2646FT SLP131

Southport Tower: 126.200

CYPK Tower (Archives)
Pitt Meadows, British Columbia, Canada

Feed Status: UP
Listen in your browser - HTML5 player(in browser, HTML5)
Click here to listen with your own player(launches your MP3 player)

CYPK Flight Activity (Flightaware)

Listeners: 1 out of 1273 total

Pitt Meadows Tower: 126.300

CYPQ AWOS (Archives)
Peterborough, Ontario, Canada

Feed Status: UP
Listen in your browser - HTML5 player(in browser, HTML5)
Click here to listen with your own player(launches your MP3 player)

CYPQ 051900Z AUTO 23010G16KT 210V270 9SM FEW049 SCT065 SCT074 23/12 A3001 RMK SLP162 DENSITY ALT 1500FT

CYPQ Flight Activity (Flightaware)

Listeners: 0 out of 1273 total

Peterborough AWOS: 126.925

CYPQ Dispatch/UNICOM (Archives)
Peterborough, Ontario, Canada

Feed Status: UP
Listen in your browser - HTML5 player(in browser, HTML5)
Click here to listen with your own player(launches your MP3 player)

CYPQ 051900Z AUTO 23010G16KT 210V270 9SM FEW049 SCT065 SCT074 23/12 A3001 RMK SLP162 DENSITY ALT 1500FT

CYPQ Flight Activity (Flightaware)

Listeners: 0 out of 1273 total

Peterborough UNICOM: 123.000
Seneca Dispatch: 122.225

CYPQ Regional/Radar (Archives)
Peterborough, Ontario, Canada

Feed Status: UP
Listen in your browser - HTML5 player(in browser, HTML5)
Click here to listen with your own player(launches your MP3 player)

CYPQ 051900Z AUTO 23010G16KT 210V270 9SM FEW049 SCT065 SCT074 23/12 A3001 RMK SLP162 DENSITY ALT 1500FT

CYPQ Flight Activity (Flightaware)

Listeners: 0 out of 1273 total

Air Ambulance: 129.275
CA-0307: 122.775
CFA1 NE Toronto: 122.900
CNF4/CPS2/CNQ6: 122.800
CPH3: 123.200
Fire Spotting: 122.925
Peterborough RCO: 126.700
Toronto Centre - YYZ ACC (East Radar): 134.250

CYPQ UNICOM/Guard (Archives)
Peterborough, Ontario, Canada

Feed Status: UP
Listen in your browser - HTML5 player(in browser, HTML5)
Click here to listen with your own player(launches your MP3 player)

CYPQ 051900Z AUTO 23010G16KT 210V270 9SM FEW049 SCT065 SCT074 23/12 A3001 RMK SLP162 DENSITY ALT 1500FT

CYPQ Flight Activity (Flightaware)

Listeners: 0 out of 1273 total

Emergency/Guard: 121.500
Peterborough UNICOM: 123.000

CYQB App/Dep (Terminal/124.0) (Archives)
Quebec, Quebec, Canada

Feed Status: UP
Listen in your browser - HTML5 player(in browser, HTML5)
Click here to listen with your own player(launches your MP3 player)

CYQB 051900Z 23015G26KT 30SM BKN036 24/17 A2981 RMK CU5 SLP097 DENSITY ALT 1500FT

CYQB Flight Activity (Flightaware)

Listeners: 0 out of 1273 total

Quebec Terminal: 124.000

CYQB App/Dep (Terminal/127.85) #1 (Archives)
Quebec, Quebec, Canada

Feed Status: UP
Listen in your browser - HTML5 player(in browser, HTML5)
Click here to listen with your own player(launches your MP3 player)

CYQB 051900Z 23015G26KT 30SM BKN036 24/17 A2981 RMK CU5 SLP097 DENSITY ALT 1500FT

CYQB Flight Activity (Flightaware)

Listeners: 1 out of 1273 total

Quebec Terminal: 127.850

CYQB App/Dep (Terminal/127.85) #2 (Archives)
Quebec, Quebec, Canada

Feed Status: UP
Listen in your browser - HTML5 player(in browser, HTML5)
Click here to listen with your own player(launches your MP3 player)

CYQB 051900Z 23015G26KT 30SM BKN036 24/17 A2981 RMK CU5 SLP097 DENSITY ALT 1500FT

CYQB Flight Activity (Flightaware)

Listeners: 0 out of 1273 total

Quebec Terminal: 127.850

CYQB ATIS (English) #1 (Archives)
Quebec, Quebec, Canada

Feed Status: UP
Listen in your browser - HTML5 player(in browser, HTML5)
Click here to listen with your own player(launches your MP3 player)

CYQB 051900Z 23015G26KT 30SM BKN036 24/17 A2981 RMK CU5 SLP097 DENSITY ALT 1500FT

CYQB Flight Activity (Flightaware)

Listeners: 0 out of 1273 total

Quebec City ATIS (English): 134.600

CYQB ATIS (English) #2 (Archives)
Quebec, Quebec, Canada

Feed Status: UP
Listen in your browser - HTML5 player(in browser, HTML5)
Click here to listen with your own player(launches your MP3 player)

CYQB 051900Z 23015G26KT 30SM BKN036 24/17 A2981 RMK CU5 SLP097 DENSITY ALT 1500FT

CYQB Flight Activity (Flightaware)

Listeners: 0 out of 1273 total

Quebec City ATIS (English): 134.600

CYQB ATIS (French) #1 (Archives)
Quebec, Quebec, Canada

Feed Status: UP
Listen in your browser - HTML5 player(in browser, HTML5)
Click here to listen with your own player(launches your MP3 player)

CYQB 051900Z 23015G26KT 30SM BKN036 24/17 A2981 RMK CU5 SLP097 DENSITY ALT 1500FT

CYQB Flight Activity (Flightaware)

Listeners: 0 out of 1273 total

Quebec City ATIS (French): 128.300

CYQB ATIS (French) #2 (Archives)
Quebec, Quebec, Canada

Feed Status: UP
Listen in your browser - HTML5 player(in browser, HTML5)
Click here to listen with your own player(launches your MP3 player)

CYQB 051900Z 23015G26KT 30SM BKN036 24/17 A2981 RMK CU5 SLP097 DENSITY ALT 1500FT

CYQB Flight Activity (Flightaware)

Listeners: 0 out of 1273 total

Quebec City ATIS (French): 128.300

CYQB Flight Service (Archives)
Quebec, Quebec, Canada

Feed Status: UP
Listen in your browser - HTML5 player(in browser, HTML5)
Click here to listen with your own player(launches your MP3 player)

CYQB 051900Z 23015G26KT 30SM BKN036 24/17 A2981 RMK CU5 SLP097 DENSITY ALT 1500FT

CYQB Flight Activity (Flightaware)

Listeners: 0 out of 1273 total

Quebec Radio Flight Service: 126.700

CYQB Flight Service (FIS) (Archives)
Quebec, Quebec, Canada

Feed Status: UP
Listen in your browser - HTML5 player(in browser, HTML5)
Click here to listen with your own player(launches your MP3 player)

CYQB 051900Z 23015G26KT 30SM BKN036 24/17 A2981 RMK CU5 SLP097 DENSITY ALT 1500FT

CYQB Flight Activity (Flightaware)

Listeners: 0 out of 1273 total

Quebec Radio Flight Service (FIS): 123.275

CYQB Ground/Tower #1 (Archives)
Quebec, Quebec, Canada

Feed Status: UP
Listen in your browser - HTML5 player(in browser, HTML5)
Click here to listen with your own player(launches your MP3 player)

CYQB 051900Z 23015G26KT 30SM BKN036 24/17 A2981 RMK CU5 SLP097 DENSITY ALT 1500FT

CYQB Flight Activity (Flightaware)

Listeners: 1 out of 1273 total

Quebec City Ground: 121.900

CYQB Ground/Tower #2 (Archives)
Quebec, Quebec, Canada

Feed Status: UP
Listen in your browser - HTML5 player(in browser, HTML5)
Click here to listen with your own player(launches your MP3 player)

CYQB 051900Z 23015G26KT 30SM BKN036 24/17 A2981 RMK CU5 SLP097 DENSITY ALT 1500FT

CYQB Flight Activity (Flightaware)

Listeners: 0 out of 1273 total

Quebec City Ground: 121.900
Quebec City Tower: 118.650

Montreal Center (Drummond/133.225) (Archives)
Quebec, Quebec, Canada

Feed Status: UP
Listen in your browser - HTML5 player(in browser, HTML5)
Click here to listen with your own player(launches your MP3 player)

CYQB 051900Z 23015G26KT 30SM BKN036 24/17 A2981 RMK CU5 SLP097 DENSITY ALT 1500FT

CYQB Flight Activity (Flightaware)

Listeners: 0 out of 1273 total

Montreal Center (Drummond Sector): 133.225

Montreal Center (Drummond/135.025) #1 (Archives)
Quebec, Quebec, Canada

Feed Status: UP
Listen in your browser - HTML5 player(in browser, HTML5)
Click here to listen with your own player(launches your MP3 player)

CYQB 051900Z 23015G26KT 30SM BKN036 24/17 A2981 RMK CU5 SLP097 DENSITY ALT 1500FT

CYQB Flight Activity (Flightaware)

Listeners: 1 out of 1273 total

Montreal Center (Drummond Sector): 135.025

Montreal Center (Drummond/135.025) #2 (Archives)
Quebec, Quebec, Canada

Feed Status: UP
Listen in your browser - HTML5 player(in browser, HTML5)
Click here to listen with your own player(launches your MP3 player)

CYQB 051900Z 23015G26KT 30SM BKN036 24/17 A2981 RMK CU5 SLP097 DENSITY ALT 1500FT

CYQB Flight Activity (Flightaware)

Listeners: 0 out of 1273 total

Montreal Center (Drummond Sector): 135.025

Montreal Center (Levis/123.925) (Archives)
Quebec, Quebec, Canada

Feed Status: UP
Listen in your browser - HTML5 player(in browser, HTML5)
Click here to listen with your own player(launches your MP3 player)

CYQB 051900Z 23015G26KT 30SM BKN036 24/17 A2981 RMK CU5 SLP097 DENSITY ALT 1500FT

CYQB Flight Activity (Flightaware)

Listeners: 0 out of 1273 total

Montreal Center (Levis Sector): 123.925

CYQG Gnd/Twr/App/Misc (Archives)
Windsor, Ontario, Canada

Feed Status: UP
Listen in your browser - HTML5 player(in browser, HTML5)
Click here to listen with your own player(launches your MP3 player)

CYQG 051900Z AUTO 30008KT 240V320 9SM BKN065 22/10 A3012 RMK SLP199 DENSITY ALT 1300FT

CYQG Flight Activity (Flightaware)

Listeners: 1 out of 1273 total

Detroit Approach: 134.300
Great Lakes ESSO: 122.950
Jazz Air: 131.775
London RCO: 123.375
Windsor Ground: 121.700
Windsor Tower: 124.700

CYQI CTAF/UNICOM (Archives)
Yarmouth, Nova Scotia, Canada

Feed Status: UP
Listen in your browser - HTML5 player(in browser, HTML5)
Click here to listen with your own player(launches your MP3 player)

CYQI 051900Z 23012G23KT 12SM FEW015 BKN220 BKN250 24/21 A3002 RMK CU1CC6CI1 CU TR HAZY SLP168 DENSITY ALT 1100FT

CYQI Flight Activity (Flightaware)

Listeners: 0 out of 1273 total

Yarmouth CTAF/UNICOM: 123.000

CYQI Halifax FIC (Archives)
Yarmouth, Nova Scotia, Canada

Feed Status: UP
Listen in your browser - HTML5 player(in browser, HTML5)
Click here to listen with your own player(launches your MP3 player)

CYQI 051900Z 23012G23KT 12SM FEW015 BKN220 BKN250 24/21 A3002 RMK CU1CC6CI1 CU TR HAZY SLP168 DENSITY ALT 1100FT

CYQI Flight Activity (Flightaware)

Listeners: 0 out of 1273 total

Halifax FIC (CYQI Area): 126.700

CYQI Moncton Center (Vitol Sector/High) (Archives)
Yarmouth, Nova Scotia, Canada

Feed Status: UP
Listen in your browser - HTML5 player(in browser, HTML5)
Click here to listen with your own player(launches your MP3 player)

CYQI 051900Z 23012G23KT 12SM FEW015 BKN220 BKN250 24/21 A3002 RMK CU1CC6CI1 CU TR HAZY SLP168 DENSITY ALT 1100FT

CYQI Flight Activity (Flightaware)

Listeners: 0 out of 1273 total

Moncton Center (Vitol Sector): 128.375

CYQI Moncton Center High (Archives)
Yarmouth, Nova Scotia, Canada

Feed Status: UP
Listen in your browser - HTML5 player(in browser, HTML5)
Click here to listen with your own player(launches your MP3 player)

CYQI 051900Z 23012G23KT 12SM FEW015 BKN220 BKN250 24/21 A3002 RMK CU1CC6CI1 CU TR HAZY SLP168 DENSITY ALT 1100FT

CYQI Flight Activity (Flightaware)

Listeners: 0 out of 1273 total

Moncton Center (TUSKY/BRADD Sector): 135.200
Moncton Center (Vitol Sector): 128.375
Moncton Center (WHALE /KANNI Sector): 132.975

CYQI Moncton Center Low (Archives)
Yarmouth, Nova Scotia, Canada

Feed Status: UP
Listen in your browser - HTML5 player(in browser, HTML5)
Click here to listen with your own player(launches your MP3 player)

CYQI 051900Z 23012G23KT 12SM FEW015 BKN220 BKN250 24/21 A3002 RMK CU1CC6CI1 CU TR HAZY SLP168 DENSITY ALT 1100FT

CYQI Flight Activity (Flightaware)

Listeners: 0 out of 1273 total

Moncton Center (Digby Sector): 123.900

CYQI Moncton Center Low/High (Archives)
Yarmouth, Nova Scotia, Canada

Feed Status: UP
Listen in your browser - HTML5 player(in browser, HTML5)
Click here to listen with your own player(launches your MP3 player)

CYQI 051900Z 23012G23KT 12SM FEW015 BKN220 BKN250 24/21 A3002 RMK CU1CC6CI1 CU TR HAZY SLP168 DENSITY ALT 1100FT

CYQI Flight Activity (Flightaware)

Listeners: 0 out of 1273 total

Moncton Center (Digby Sector): 123.900
Moncton Center (TUSKY/BRADD Sector): 135.200
Moncton Center (Vitol Sector): 128.375
Moncton Center (WHALE /KANNI Sector): 132.975

CYQI Wildfire/SAR Aircraft (Archives)
Yarmouth, Nova Scotia, Canada

Feed Status: UP
Listen in your browser - HTML5 player(in browser, HTML5)
Click here to listen with your own player(launches your MP3 player)

CYQI 051900Z 23012G23KT 12SM FEW015 BKN220 BKN250 24/21 A3002 RMK CU1CC6CI1 CU TR HAZY SLP168 DENSITY ALT 1100FT

CYQI Flight Activity (Flightaware)

Listeners: 0 out of 1273 total

Provincial Aircraft/Wildfires/SAR: 122.400

CYQM App/Dep (Archives)
Moncton, New Brunswick, Canada

Feed Status: UP
Listen in your browser - HTML5 player(in browser, HTML5)
Click here to listen with your own player(launches your MP3 player)

CYQM 051900Z 19020G29KT 15SM SCT049 BKN160 BKN260 28/18 A2990 RMK SC3AC2CI1 SLP127 DENSITY ALT 1900FT

CYQM Flight Activity (Flightaware)

Listeners: 0 out of 1273 total

Moncton Radar: 124.400

CYQM Gnd/Twr/Misc (Archives)
Moncton, New Brunswick, Canada

Feed Status: UP
Listen in your browser - HTML5 player(in browser, HTML5)
Click here to listen with your own player(launches your MP3 player)

CYQM 051900Z 19020G29KT 15SM SCT049 BKN160 BKN260 28/18 A2990 RMK SC3AC2CI1 SLP127 DENSITY ALT 1900FT

CYQM Flight Activity (Flightaware)

Listeners: 0 out of 1273 total

Halifax FIC RCO: 122.500
Halifax FIC RCO: 126.700
Moncton Flight College: 123.350
Moncton Ground: 121.800
Moncton Tower: 120.800

CYQM Moncton Center High (Archives)
Moncton, New Brunswick, Canada

Feed Status: UP
Listen in your browser - HTML5 player(in browser, HTML5)
Click here to listen with your own player(launches your MP3 player)

CZQM Flight Activity (Flightaware)

Listeners: 0 out of 1273 total

Moncton Center (Freddy Sector, High): 132.700
Moncton Center (Fundy Sector, High): 127.125
Moncton Center (Miils Sector): 133.875

CYQM Moncton Center Low (Archives)
Moncton, New Brunswick, Canada

Feed Status: UP
Listen in your browser - HTML5 player(in browser, HTML5)
Click here to listen with your own player(launches your MP3 player)

CZQM Flight Activity (Flightaware)

Listeners: 0 out of 1273 total

Moncton Center: 132.500
Moncton Center (Digby Sector, Low): 132.200

CYQT Ground/Tower
Thunder Bay, Ontario, Canada

Feed Status: DOWN
Offline since: 2020-06-30 19:07:21 UTC

CYQT 051900Z 11007KT 15SM SCT065 BKN088 24/13 A2996 RMK SC4AC2 SLP150 DENSITY ALT 1800FT

Thunder Bay Ground: 121.900
Thunder Bay Tower: 118.100

CYQU RDO
Grande Prairie, Alberta, Canada

Feed Status: DOWN
Offline since: 2020-02-17 16:28:05 UTC

CYQU 051900Z 12010KT 25SM FEW250 25/10 A2978 RMK CI1 SLP088 DENSITY ALT 4000FT

Grande Prairie RDO: 118.100

CYRQ CTAF (Archives)
Trois-Rivieres, Quebec, Canada

Feed Status: UP
Listen in your browser - HTML5 player(in browser, HTML5)
Click here to listen with your own player(launches your MP3 player)

CYRQ 051900Z AUTO 23014G30KT 9SM FEW042 25/17 A2983 RMK SLP102 DENSITY ALT 1500FT

CYRQ Flight Activity (Flightaware)

Listeners: 0 out of 1273 total

Trois-Rivieres CTAF/UNICOM: 122.350

CYRQ/CSR3 CTAF (Archives)
Trois-Rivieres, Quebec, Canada

Feed Status: UP
Listen in your browser - HTML5 player(in browser, HTML5)
Click here to listen with your own player(launches your MP3 player)

CYRQ 051900Z AUTO 23014G30KT 9SM FEW042 25/17 A2983 RMK SLP102 DENSITY ALT 1500FT

CYRQ Flight Activity (Flightaware)

Listeners: 0 out of 1273 total

Trois-Rivieres CTAF/UNICOM: 122.350
Victoriaville CTAF/UNICOM: 123.350

CYSB Gnd/Twr/Center (Archives)
Sudbury, Ontario, Canada

Feed Status: UP
Listen in your browser - HTML5 player(in browser, HTML5)
Click here to listen with your own player(launches your MP3 player)

CYSB 051900Z 23011KT 200V270 15SM -SHRA BKN040TCU BKN070 17/12 A2994 RMK TCU5AC1 SLP143 DENSITY ALT 1600FT

CYSB Flight Activity (Flightaware)

Listeners: 0 out of 1273 total

Sudbury Ground: 121.800
Sudbury Tower: 125.500
Toronto Centre: 135.500

CYSC AWOS (Archives)
Sherbrooke, Quebec, Canada

Feed Status: UP
Listen in your browser - HTML5 player(in browser, HTML5)
Click here to listen with your own player(launches your MP3 player)

CYSC 051900Z AUTO 21011G19KT 170V240 9SM FEW250 24/17 A2990 RMK SLP127 DENSITY ALT 2000FT

CYSC Flight Activity (Flightaware)

Listeners: 0 out of 1273 total

Sherbrooke AWOS: 126.250

CYSC CTAF (Archives)
Sherbrooke, Quebec, Canada

Feed Status: UP
Listen in your browser - HTML5 player(in browser, HTML5)
Click here to listen with your own player(launches your MP3 player)

CYSC 051900Z AUTO 21011G19KT 170V240 9SM FEW250 24/17 A2990 RMK SLP127 DENSITY ALT 2000FT

CYSC Flight Activity (Flightaware)

Listeners: 0 out of 1273 total

Sherbrooke CTAF: 123.500

CYSC Emergency/Guard (Archives)
Sherbrooke, Quebec, Canada

Feed Status: UP
Listen in your browser - HTML5 player(in browser, HTML5)
Click here to listen with your own player(launches your MP3 player)

CYSC 051900Z AUTO 21011G19KT 170V240 9SM FEW250 24/17 A2990 RMK SLP127 DENSITY ALT 2000FT

CYSC Flight Activity (Flightaware)

Listeners: 0 out of 1273 total

Emergency/Guard: 121.500

CYSC RCO/GCO (Archives)
Sherbrooke, Quebec, Canada

Feed Status: UP
Listen in your browser - HTML5 player(in browser, HTML5)
Click here to listen with your own player(launches your MP3 player)

CYSC 051900Z AUTO 21011G19KT 170V240 9SM FEW250 24/17 A2990 RMK SLP127 DENSITY ALT 2000FT

CYSC Flight Activity (Flightaware)

Listeners: 0 out of 1273 total

Sherbrooke RCO/GCO: 123.250

CYSC ZUL 132.55 (Archives)
Sherbrooke, Quebec, Canada

Feed Status: UP
Listen in your browser - HTML5 player(in browser, HTML5)
Click here to listen with your own player(launches your MP3 player)

CYSC 051900Z AUTO 21011G19KT 170V240 9SM FEW250 24/17 A2990 RMK SLP127 DENSITY ALT 2000FT

CYSC Flight Activity (Flightaware)

Listeners: 0 out of 1273 total

Montreal Center: 132.550

CYSC ZUL 133.225 (Archives)
Sherbrooke, Quebec, Canada

Feed Status: UP
Listen in your browser - HTML5 player(in browser, HTML5)
Click here to listen with your own player(launches your MP3 player)

CYSC 051900Z AUTO 21011G19KT 170V240 9SM FEW250 24/17 A2990 RMK SLP127 DENSITY ALT 2000FT

CYSC Flight Activity (Flightaware)

Listeners: 0 out of 1273 total

Montreal Center: 133.225

CYTS ATIS (Archives)
Timmins, Ontario, Canada

Feed Status: UP
Listen in your browser - HTML5 player(in browser, HTML5)
Click here to listen with your own player(launches your MP3 player)

CYTS 051909Z 28010KT 240V310 15SM -SHRA SCT020 BKN030 OVC045 15/12 A2989 RMK SC4SC2SC2 CVCTV CLD EMBD SLP130 DENSITY ALT 1200FT

CYTS Flight Activity (Flightaware)

Listeners: 0 out of 1273 total

Timmins ATIS: 124.950

CZUL ACC (Noranda Sector) (Archives)
Timmins, Ontario, Canada

Feed Status: UP
Listen in your browser - HTML5 player(in browser, HTML5)
Click here to listen with your own player(launches your MP3 player)

CYUL 051900Z 25012G22KT 30SM FEW040 FEW060 SCT090 SCT140 24/16 A2990 RMK CU1SC1AC1AC1 AC TR SLP127 DENSITY ALT 1300FT

CYUL Flight Activity (Flightaware)

Listeners: 0 out of 1273 total

Montreal Center (Brevoort Sector) : 133.200
Montreal Center (Brevoort Sector) : 134.850
Montreal Center (Brevoort Sector) : 132.800
Montreal Center (Caniapiscau Sector) : 119.400
Montreal Center (Chibougamau Sector) : 133.025
Montreal Center (Fontages Sector) : 134.325
Montreal Center (LaGrande Sector) : 133.775
Montreal Center (Moosonee Sector*) : 118.975
Montreal Center (Noranda Sector) : 133.975
Montreal Center (Rouyn Sector*): 120.725
Montreal Center (Unknown Sector) : 132.675

Toronto Center (Timmins) (Archives)
Timmins, Ontario, Canada

Feed Status: UP
Listen in your browser - HTML5 player(in browser, HTML5)
Click here to listen with your own player(launches your MP3 player)

CZYZ Flight Activity (Flightaware)

Listeners: 0 out of 1273 total

Moosonee CYMO: 133.725
North Bay CYYB (8pm-7am M-F and 24h Sat-Sun): 127.250
Sudbury CYSB (8pm-7am M-F and 24h Sat-Sun): 135.500
Toronto Center (North Bay High Sector): 121.225
Toronto Center (Sault High Sector): 134.425
Toronto Center (Sault Low Elliot Lake Sector): 135.400
Toronto Center (Timmins Sector): 128.300
Toronto Center (Wawa Sector): 124.075

CYTZ Approach (Archives)
Toronto, Ontario, Canada

Feed Status: UP
Listen in your browser - HTML5 player(in browser, HTML5)
Click here to listen with your own player(launches your MP3 player)

CYTZ 051900Z AUTO 25012KT 9SM SCT065 24/11 A3002 RMK SLP168 DENSITY ALT 1200FT

CYTZ Flight Activity (Flightaware)

Listeners: 0 out of 1273 total

Toronto Terminal (East): 133.400

CYTZ Tower (Archives)
Toronto, Ontario, Canada

Feed Status: UP
Listen in your browser - HTML5 player(in browser, HTML5)
Click here to listen with your own player(launches your MP3 player)

CYTZ 051900Z AUTO 25012KT 9SM SCT065 24/11 A3002 RMK SLP168 DENSITY ALT 1200FT

CYTZ Flight Activity (Flightaware)

Listeners: 0 out of 1273 total

Island (Billy Bishop) Tower: 118.200

CYUL Approach/Departure (Archives)
Montreal, Quebec, Canada

Feed Status: UP
Listen in your browser - HTML5 player(in browser, HTML5)
Click here to listen with your own player(launches your MP3 player)

CYUL 051900Z 25012G22KT 30SM FEW040 FEW060 SCT090 SCT140 24/16 A2990 RMK CU1SC1AC1AC1 AC TR SLP127 DENSITY ALT 1300FT

CYUL Flight Activity (Flightaware)

Listeners: 4 out of 1273 total

Montreal Terminal: 126.900
Montreal Terminal: 124.650
Montreal Terminal: 118.900
Montreal Terminal: 132.850
Montreal Terminal: 125.150
Montreal Terminal: 120.425
VFR Advisory: 134.150

CYUL De-icing Ops (Archives)
Montreal, Quebec, Canada

Feed Status: UP
Listen in your browser - HTML5 player(in browser, HTML5)
Click here to listen with your own player(launches your MP3 player)

CYUL 051900Z 25012G22KT 30SM FEW040 FEW060 SCT090 SCT140 24/16 A2990 RMK CU1SC1AC1AC1 AC TR SLP127 DENSITY ALT 1300FT

CYUL Flight Activity (Flightaware)

Listeners: 0 out of 1273 total

Emergency Comms: 123.175
Emergency Comms: 122.675
Emergency/Guard: 121.500
Montreal De-icing Coordinator: 123.125
Montreal De-icing Traffic: 122.525

CYUL Del/Ground/Apron (Archives)
Montreal, Quebec, Canada

Feed Status: UP
Listen in your browser - HTML5 player(in browser, HTML5)
Click here to listen with your own player(launches your MP3 player)

CYUL 051900Z 25012G22KT 30SM FEW040 FEW060 SCT090 SCT140 24/16 A2990 RMK CU1SC1AC1AC1 AC TR SLP127 DENSITY ALT 1300FT

CYUL Flight Activity (Flightaware)

Listeners: 0 out of 1273 total

Montreal Apron: 122.075
Montreal Clearance Delivery: 125.600
Montreal Ground (East): 121.900
Montreal Ground (West): 121.000

CYUL Tower (Archives)
Montreal, Quebec, Canada

Feed Status: UP
Listen in your browser - HTML5 player(in browser, HTML5)
Click here to listen with your own player(launches your MP3 player)

CYUL 051900Z 25012G22KT 30SM FEW040 FEW060 SCT090 SCT140 24/16 A2990 RMK CU1SC1AC1AC1 AC TR SLP127 DENSITY ALT 1300FT

CYUL Flight Activity (Flightaware)

Listeners: 1 out of 1273 total

Montreal Tower: 119.900
Montreal Tower: 119.300
Montreal Tower: 124.300

CZUL Center (Montreal) (Archives)
Montreal, Quebec, Canada

Feed Status: UP
Listen in your browser - HTML5 player(in browser, HTML5)
Click here to listen with your own player(launches your MP3 player)

CYUL 051900Z 25012G22KT 30SM FEW040 FEW060 SCT090 SCT140 24/16 A2990 RMK CU1SC1AC1AC1 AC TR SLP127 DENSITY ALT 1300FT

CYUL Flight Activity (Flightaware)

Listeners: 0 out of 1273 total

Montreal Center (Aylmer Sector - FL290 and above): 134.400
Montreal Center (Drummond Sector - FL280 and above): 133.225
Montreal Center (Granby Sector - FL280 and above): 132.350
Montreal Center (Granby Sector - FL280 and below): 132.550
Montreal Center (Laurier Sector - FL280 and below): 126.575
Montreal Center (Laurier Sector - FL290 and below): 135.600
Montreal Center (Levis Sector - FL290 and above): 123.925
Montreal Center (Pontiac Sector - FL290 and above): 127.875
Montreal Center (Rawdon Sector - FL290 and below): 128.225
Montreal Center (Thurso Sector - FL280 and below): 128.775

CZUL Center (Vallie Sector) (Archives)
Montreal, Quebec, Canada

Feed Status: UP
Listen in your browser - HTML5 player(in browser, HTML5)
Click here to listen with your own player(launches your MP3 player)

CZUL Flight Activity (Flightaware)

Listeners: 0 out of 1273 total

Montreal Center (Vallie Sector FL280/below): 134.975

CYVK CTAF/UNICOM (Archives)
Vernon, British Columbia, Canada

Feed Status: UP
Listen in your browser - HTML5 player(in browser, HTML5)
Click here to listen with your own player(launches your MP3 player)

CYVK Flight Activity (Flightaware)

Listeners: 0 out of 1273 total

Vernon CTAF/UNICOM: 122.800

CYVO Gnd/RDO/Center (Archives)
Val-D'Or, Quebec, Canada

Feed Status: UP
Listen in your browser - HTML5 player(in browser, HTML5)
Click here to listen with your own player(launches your MP3 player)

CYVO 051900Z 25011G20KT 220V300 15SM FEW026 BKN036 BKN140 18/11 A2983 RMK SF2SC5AC1 AC TR SLP110 DENSITY ALT 1800FT

CYVO Flight Activity (Flightaware)

Listeners: 0 out of 1273 total

Emergency/Guard: 121.500
Montreal Centre: 125.900
Rouyn RDO (FSS): 118.500
Val-d'Or Ground Services: 122.600
Val-D'Or VFR En Route: 126.700

CYVR App/Dep #1 (Archives)
Vancouver, British Columbia, Canada

Feed Status: UP
Listen in your browser - HTML5 player(in browser, HTML5)
Click here to listen with your own player(launches your MP3 player)

CYVR 051900Z 15013KT 20SM FEW036 FEW120 FEW260 22/13 A2992 RMK CU1AC1CI1 CU TR AC TR SLP132 DENSITY ALT 900FT

CYVR Flight Activity (Flightaware)

Listeners: 0 out of 1273 total

Vancouver Terminal (Arrival High Outer): 128.600
Vancouver Terminal (Arrival Inner): 134.225
Vancouver Terminal (Arrival Low Inner): 133.100
Vancouver Terminal (Arrival Outer): 128.175
Vancouver Terminal (Departure North): 126.125
Vancouver Terminal (Departure South): 132.300
Vancouver Terminal (Departure South): 132.300
Vancouver Terminal (TRSA): 125.200

CYVR App/Dep #2 (Archives)
Vancouver, British Columbia, Canada

Feed Status: UP
Listen in your browser - HTML5 player(in browser, HTML5)
Click here to listen with your own player(launches your MP3 player)

CYVR 051900Z 15013KT 20SM FEW036 FEW120 FEW260 22/13 A2992 RMK CU1AC1CI1 CU TR AC TR SLP132 DENSITY ALT 900FT

CYVR Flight Activity (Flightaware)

Listeners: 0 out of 1273 total

Vancouver Terminal (Arrival High Outer): 128.600
Vancouver Terminal (Arrival Low Inner): 133.100
Vancouver Terminal (Departure North): 126.125
Vancouver Terminal (Departure South): 132.300
Vancouver Terminal (ILS Monitor): 120.500
Vancouver Terminal (ILS Monitor): 128.175
Vancouver Terminal (TRSA): 125.200

CYVR Del/Gnd (Archives)
Vancouver, British Columbia, Canada

Feed Status: UP
Listen in your browser - HTML5 player(in browser, HTML5)
Click here to listen with your own player(launches your MP3 player)

CYVR 051900Z 15013KT 20SM FEW036 FEW120 FEW260 22/13 A2992 RMK CU1AC1CI1 CU TR AC TR SLP132 DENSITY ALT 900FT

CYVR Flight Activity (Flightaware)

Listeners: 0 out of 1273 total

Emergency (Discrete): 122.675
Vancouver Clearance Delivery: 121.400
Vancouver Ground (North): 121.700
Vancouver Ground (South): 127.150

CYVR Del/Gnd/Twr #1 (Archives)
Vancouver, British Columbia, Canada

Feed Status: UP
Listen in your browser - HTML5 player(in browser, HTML5)
Click here to listen with your own player(launches your MP3 player)

CYVR 051900Z 15013KT 20SM FEW036 FEW120 FEW260 22/13 A2992 RMK CU1AC1CI1 CU TR AC TR SLP132 DENSITY ALT 900FT

CYVR Flight Activity (Flightaware)

Listeners: 0 out of 1273 total

Emergency (Discrete): 122.675
Vancouver Clearance Delivery: 121.400
Vancouver Ground (North): 121.700
Vancouver Ground (South): 127.150
Vancouver Tower (Backup): 120.150
Vancouver Tower (North): 119.550
Vancouver Tower (Outer): 124.000
Vancouver Tower (South): 118.700
Vancouver Tower (VFR): 125.650

CYVR Del/Gnd/Twr/App (Archives)
Vancouver, British Columbia, Canada

Feed Status: UP
Listen in your browser - HTML5 player(in browser, HTML5)
Click here to listen with your own player(launches your MP3 player)

CYVR 051900Z 15013KT 20SM FEW036 FEW120 FEW260 22/13 A2992 RMK CU1AC1CI1 CU TR AC TR SLP132 DENSITY ALT 900FT

CYVR Flight Activity (Flightaware)

Listeners: 0 out of 1273 total

Vancouver Clearance Delivery: 121.400
Vancouver Ground (North): 127.150
Vancouver Ground (South): 121.700
Vancouver Terminal (Departures): 132.300
Vancouver Terminal (Departures): 126.125
Vancouver Terminal (Hi, Outer): 128.600
Vancouver Terminal (ILS Monitor): 128.175
Vancouver Terminal (Lo, Inner): 133.100
Vancouver Terminal (TRSA): 125.200
Vancouver Tower: 125.650
Vancouver Tower (Backup): 120.150
Vancouver Tower (North): 119.550
Vancouver Tower (Outer): 124.000
Vancouver Tower (South): 118.700

CYVR Tower (Archives)
Vancouver, British Columbia, Canada

Feed Status: UP
Listen in your browser - HTML5 player(in browser, HTML5)
Click here to listen with your own player(launches your MP3 player)

CYVR 051900Z 15013KT 20SM FEW036 FEW120 FEW260 22/13 A2992 RMK CU1AC1CI1 CU TR AC TR SLP132 DENSITY ALT 900FT

CYVR Flight Activity (Flightaware)

Listeners: 0 out of 1273 total

Vancouver Tower (Backup): 120.150
Vancouver Tower (North): 119.550
Vancouver Tower (Outer): 124.000
Vancouver Tower (South): 118.700
Vancouver Tower (VFR): 125.650

CZVR Vancouver ACC (Archives)
Vancouver, British Columbia, Canada

Feed Status: UP
Listen in your browser - HTML5 player(in browser, HTML5)
Click here to listen with your own player(launches your MP3 player)

CYVR 051900Z 15013KT 20SM FEW036 FEW120 FEW260 22/13 A2992 RMK CU1AC1CI1 CU TR AC TR SLP132 DENSITY ALT 900FT

CYVR Flight Activity (Flightaware)

Listeners: 2 out of 1273 total

ARINC En Route (SFO): 129.400
Vancouver East (Bruce Peak): 125.950
Vancouver East (Simulcast): 135.325
Vancouver East (Vancouver): 133.700
Vancouver North (Bruce Peak): 134.400
Vancouver North (Simulcast): 127.925
Vancouver West (Tofino): 132.900
Vancouver West (Tofino): 134.925
Vancouver West (Vancouver): 134.800

CYWG App/Dep (Archives)
Winnipeg, Manitoba, Canada

Feed Status: UP
Listen in your browser - HTML5 player(in browser, HTML5)
Click here to listen with your own player(launches your MP3 player)

CYWG 051900Z 18010KT 15SM FEW045 FEW060 28/15 A2991 RMK SC1SC1 WND ESTD SLP131 DENSITY ALT 2500FT

CYWG Flight Activity (Flightaware)

Listeners: 1 out of 1273 total

Winnipeg Approach/Departure: 119.500
Winnipeg Approach/Departure: 119.900
Winnipeg Approach/Departure: 121.000

CYWG ATIS
Winnipeg, Manitoba, Canada

Feed Status: DOWN
Offline since: 2020-08-04 17:11:22 UTC

CYWG 051900Z 18010KT 15SM FEW045 FEW060 28/15 A2991 RMK SC1SC1 WND ESTD SLP131 DENSITY ALT 2500FT

Winnipeg ATIS: 120.200

CYWG Center (Archives)
Winnipeg, Manitoba, Canada

Feed Status: UP
Listen in your browser - HTML5 player(in browser, HTML5)
Click here to listen with your own player(launches your MP3 player)

CYWG 051900Z 18010KT 15SM FEW045 FEW060 28/15 A2991 RMK SC1SC1 WND ESTD SLP131 DENSITY ALT 2500FT

CYWG Flight Activity (Flightaware)

Listeners: 1 out of 1273 total

Winnipeg Center: 132.250
Winnipeg Center: 134.400

CYWG Del/Gnd/Twr (Archives)
Winnipeg, Manitoba, Canada

Feed Status: UP
Listen in your browser - HTML5 player(in browser, HTML5)
Click here to listen with your own player(launches your MP3 player)

CYWG 051900Z 18010KT 15SM FEW045 FEW060 28/15 A2991 RMK SC1SC1 WND ESTD SLP131 DENSITY ALT 2500FT

CYWG Flight Activity (Flightaware)

Listeners: 3 out of 1273 total

Winnipeg Clearance: 121.300
Winnipeg Ground: 121.900
Winnipeg Tower: 118.300

CYXE Gnd/Tower (Archives)
Saskatoon, Saskatchewan, Canada

Feed Status: UP
Listen in your browser - HTML5 player(in browser, HTML5)
Click here to listen with your own player(launches your MP3 player)

CYXE 051900Z VRB06KT 15SM SKC 27/10 A2995 RMK SLP149 DENSITY ALT 3400FT

CYXE Flight Activity (Flightaware)

Listeners: 0 out of 1273 total

Saskatoon Ground: 121.900
Saskatoon Tower: 118.300

CYXE Terminal (App/Dep) (Archives)
Saskatoon, Saskatchewan, Canada

Feed Status: UP
Listen in your browser - HTML5 player(in browser, HTML5)
Click here to listen with your own player(launches your MP3 player)

CYXE 051900Z VRB06KT 15SM SKC 27/10 A2995 RMK SLP149 DENSITY ALT 3400FT

CYXE Flight Activity (Flightaware)

Listeners: 0 out of 1273 total

Edmonton RDO: 122.500
Emergency/Guard: 121.500
Saskatoon Arrival/Departure: 119.900

Winnipeg Centre (CYXE Area) (Archives)
Saskatoon, Saskatchewan, Canada

Feed Status: UP
Listen in your browser - HTML5 player(in browser, HTML5)
Click here to listen with your own player(launches your MP3 player)

CYXE 051900Z VRB06KT 15SM SKC 27/10 A2995 RMK SLP149 DENSITY ALT 3400FT

CYXE Flight Activity (Flightaware)

Listeners: 0 out of 1273 total

Winnipeg Centre (Prince Albert Sector): 133.100
Winnipeg Centre (Waskesiu Sector): 134.325
Winnipeg FIC: 126.700
Winnipeg FIC: 122.375

CYXU App/Dep (London Sector) (Archives)
London, Ontario, Canada

Feed Status: UP
Listen in your browser - HTML5 player(in browser, HTML5)
Click here to listen with your own player(launches your MP3 player)

CYXU 051900Z 31007G17KT 260V330 15SM BKN047 20/11 A3011 RMK SC5 SLP197 DENSITY ALT 1500FT

CYXU Flight Activity (Flightaware)

Listeners: 0 out of 1273 total

Toronto Center (London Sector): 135.300

CYXU Ground (Archives)
London, Ontario, Canada

Feed Status: UP
Listen in your browser - HTML5 player(in browser, HTML5)
Click here to listen with your own player(launches your MP3 player)

CYXU 051900Z 31007G17KT 260V330 15SM BKN047 20/11 A3011 RMK SC5 SLP197 DENSITY ALT 1500FT

CYXU Flight Activity (Flightaware)

Listeners: 0 out of 1273 total

London Ground: 121.900

CYXU Tower (Archives)
London, Ontario, Canada

Feed Status: UP
Listen in your browser - HTML5 player(in browser, HTML5)
Click here to listen with your own player(launches your MP3 player)

CYXU 051900Z 31007G17KT 260V330 15SM BKN047 20/11 A3011 RMK SC5 SLP197 DENSITY ALT 1500FT

CYXU Flight Activity (Flightaware)

Listeners: 1 out of 1273 total

London Tower: 119.400

CZYZ Toronto Center (Kitchener Sector) (Archives)
London, Ontario, Canada

Feed Status: UP
Listen in your browser - HTML5 player(in browser, HTML5)
Click here to listen with your own player(launches your MP3 player)

CYXU 051900Z 31007G17KT 260V330 15SM BKN047 20/11 A3011 RMK SC5 SLP197 DENSITY ALT 1500FT

CYXU Flight Activity (Flightaware)

Listeners: 0 out of 1273 total

Toronto Center (Kitchener Sector): 135.625

CZYZ Toronto Center (Lucan Sector) (Archives)
London, Ontario, Canada

Feed Status: UP
Listen in your browser - HTML5 player(in browser, HTML5)
Click here to listen with your own player(launches your MP3 player)

CYXU 051900Z 31007G17KT 260V330 15SM BKN047 20/11 A3011 RMK SC5 SLP197 DENSITY ALT 1500FT

CYXU Flight Activity (Flightaware)

Listeners: 0 out of 1273 total

Toronto Center (Lucan Sector): 135.825

CYYB RDO/CTAF (Archives)
North Bay, Ontario, Canada

Feed Status: UP
Listen in your browser - HTML5 player(in browser, HTML5)
Click here to listen with your own player(launches your MP3 player)

CYYB 051900Z 24013G19KT 220V290 30SM SCT034 BKN075 18/11 A2994 RMK CU3AC3 SLP142 DENSITY ALT 1900FT

CYYB Flight Activity (Flightaware)

Listeners: 0 out of 1273 total

North Bay RDO/CTAF: 118.300

CYYB Toronto Center (Archives)
North Bay, Ontario, Canada

Feed Status: UP
Listen in your browser - HTML5 player(in browser, HTML5)
Click here to listen with your own player(launches your MP3 player)

CYYB 051900Z 24013G19KT 220V290 30SM SCT034 BKN075 18/11 A2994 RMK CU3AC3 SLP142 DENSITY ALT 1900FT

CYYB Flight Activity (Flightaware)

Listeners: 1 out of 1273 total

Toronto Center: 127.250

CYYC App/Dep (Archives)
Calgary, Alberta, Canada

Feed Status: UP
Listen in your browser - HTML5 player(in browser, HTML5)
Click here to listen with your own player(launches your MP3 player)

CYYC 051900Z 15009G16KT 110V170 30SM FEW050 25/12 A2993 RMK CU1 CU TR SLP124 DENSITY ALT 5600FT

CYYC Flight Activity (Flightaware)

Listeners: 0 out of 1273 total

Calgary Arrivals: 125.900
Calgary Departures: 119.800

CYYC Tower #1 (Archives)
Calgary, Alberta, Canada

Feed Status: UP
Listen in your browser - HTML5 player(in browser, HTML5)
Click here to listen with your own player(launches your MP3 player)

CYYC 051900Z 15009G16KT 110V170 30SM FEW050 25/12 A2993 RMK CU1 CU TR SLP124 DENSITY ALT 5600FT

CYYC Flight Activity (Flightaware)

Listeners: 0 out of 1273 total

Calgary Tower: 118.400

CYYC Tower #2 (Archives)
Calgary, Alberta, Canada

Feed Status: UP
Listen in your browser - HTML5 player(in browser, HTML5)
Click here to listen with your own player(launches your MP3 player)

CYYC 051900Z 15009G16KT 110V170 30SM FEW050 25/12 A2993 RMK CU1 CU TR SLP124 DENSITY ALT 5600FT

CYYC Flight Activity (Flightaware)

Listeners: 0 out of 1273 total

Calgary Tower: 118.400

CYYC Twr/App/Center (Archives)
Calgary, Alberta, Canada

Feed Status: UP
Listen in your browser - HTML5 player(in browser, HTML5)
Click here to listen with your own player(launches your MP3 player)

CYYC 051900Z 15009G16KT 110V170 30SM FEW050 25/12 A2993 RMK CU1 CU TR SLP124 DENSITY ALT 5600FT

CYYC Flight Activity (Flightaware)

Listeners: 0 out of 1273 total

Calgary Arrivals: 125.900
Calgary Departures: 119.800
Calgary Tower: 118.400
Edmonton Center (Banff Sector): 133.300

CYYC Twr/App/Dep (Archives)
Calgary, Alberta, Canada

Feed Status: UP
Listen in your browser - HTML5 player(in browser, HTML5)
Click here to listen with your own player(launches your MP3 player)

CYYC 051900Z 15009G16KT 110V170 30SM FEW050 25/12 A2993 RMK CU1 CU TR SLP124 DENSITY ALT 5600FT

CYYC Flight Activity (Flightaware)

Listeners: 0 out of 1273 total

Calgary Arrivals: 125.900
Calgary Departures: 119.800
Calgary Tower: 118.400

CYYJ Gnd/Twr (Archives)
Victoria, British Columbia, Canada

Feed Status: UP
Listen in your browser - HTML5 player(in browser, HTML5)
Click here to listen with your own player(launches your MP3 player)

CYYJ 051900Z 10007KT 30SM FEW040 FEW250 20/11 A2991 RMK CU1CI1 CU TR CI TR SLP131 DENSITY ALT 700FT

CYYJ Flight Activity (Flightaware)

Listeners: 1 out of 1273 total

Victoria Ground: 121.900
Victoria Tower (Inner): 119.700
Victoria Tower (Outer): 119.100

CYYR Del/Gnd/Twr/App (Archives)
Goose Bay, Newfoundland, Canada

Feed Status: UP
Listen in your browser - HTML5 player(in browser, HTML5)
Click here to listen with your own player(launches your MP3 player)

CYYR 051900Z 27009KT 15SM BKN150 BKN300 26/10 A2986 RMK AC6CI1 SLP112

CYYR Flight Activity (Flightaware)

Listeners: 0 out of 1273 total

Goose Bay Clearance Delivery: 118.100
Goose Bay Ground: 121.900
Goose Bay Terminal: 119.500
Goose Bay Tower: 119.100
Halifax Radio: 126.700
Halifax Radio (FIS): 123.475
PAR: 119.900
Ranger Base: 129.300
Wing Ops: 129.850

CYYR Del/Gnd/Twr/App/Center (Archives)
Goose Bay, Newfoundland, Canada

Feed Status: UP
Listen in your browser - HTML5 player(in browser, HTML5)
Click here to listen with your own player(launches your MP3 player)

CYYR 051900Z 27009KT 15SM BKN150 BKN300 26/10 A2986 RMK AC6CI1 SLP112

CYYR Flight Activity (Flightaware)

Listeners: 0 out of 1273 total

Gander Center (FL280 and below): 120.400
Gander Center (FL290 and above): 133.425
Gander Center (FL290 and above): 132.400
Gander Center (FL290 and above): 127.675
Goose Bay Clearance Delivery: 118.100
Goose Bay Ground: 121.900
Goose Bay Terminal: 119.500
Goose Bay Tower: 119.100
Halifax Radio: 126.700
Halifax Radio (FIS): 123.475
PAR: 119.900
Ranger Base: 129.300
Wing Ops: 129.850

CYYR Gander Center (Archives)
Goose Bay, Newfoundland, Canada

Feed Status: UP
Listen in your browser - HTML5 player(in browser, HTML5)
Click here to listen with your own player(launches your MP3 player)

CYYR 051900Z 27009KT 15SM BKN150 BKN300 26/10 A2986 RMK AC6CI1 SLP112

CYYR Flight Activity (Flightaware)

Listeners: 1 out of 1273 total

Gander Center (FL280 and below): 120.400
Gander Center (FL290 and above): 127.675
Gander Center (FL290 and above): 132.400
Gander Center (FL290 and above): 133.425

CYYT ATIS (Archives)
St. John's, Newfoundland, Canada

Feed Status: UP
Listen in your browser - HTML5 player(in browser, HTML5)
Click here to listen with your own player(launches your MP3 player)

CYYT 051900Z 14009KT 15SM FEW030 FEW130 18/12 A3013 RMK SC1AC1 SLP208 DENSITY ALT 700FT

CYYT Flight Activity (Flightaware)

Listeners: 0 out of 1273 total

St. John's ATIS: 128.000

CYYT Ground (Archives)
St. John's, Newfoundland, Canada

Feed Status: UP
Listen in your browser - HTML5 player(in browser, HTML5)
Click here to listen with your own player(launches your MP3 player)

CYYT 051900Z 14009KT 15SM FEW030 FEW130 18/12 A3013 RMK SC1AC1 SLP208 DENSITY ALT 700FT

CYYT Flight Activity (Flightaware)

Listeners: 0 out of 1273 total

St. John's Ground: 121.900

CYYT Ground/Tower (Archives)
St. John's, Newfoundland, Canada

Feed Status: UP
Listen in your browser - HTML5 player(in browser, HTML5)
Click here to listen with your own player(launches your MP3 player)

CYYT 051900Z 14009KT 15SM FEW030 FEW130 18/12 A3013 RMK SC1AC1 SLP208 DENSITY ALT 700FT

CYYT Flight Activity (Flightaware)

Listeners: 1 out of 1273 total

St. John's Ground: 121.900
St. John's Tower: 120.600

CYYT Tower (Archives)
St. John's, Newfoundland, Canada

Feed Status: UP
Listen in your browser - HTML5 player(in browser, HTML5)
Click here to listen with your own player(launches your MP3 player)

CYYT 051900Z 14009KT 15SM FEW030 FEW130 18/12 A3013 RMK SC1AC1 SLP208 DENSITY ALT 700FT

CYYT Flight Activity (Flightaware)

Listeners: 0 out of 1273 total

St. John's Tower: 120.600

Gander Center 133.150 (Archives)
St. John's, Newfoundland, Canada

Feed Status: UP
Listen in your browser - HTML5 player(in browser, HTML5)
Click here to listen with your own player(launches your MP3 player)

CYYT 051900Z 14009KT 15SM FEW030 FEW130 18/12 A3013 RMK SC1AC1 SLP208 DENSITY ALT 700FT

CYYT Flight Activity (Flightaware)

Listeners: 0 out of 1273 total

Gander Center: 133.150

Gander Radio 122.375 (Archives)
St. John's, Newfoundland, Canada

Feed Status: UP
Listen in your browser - HTML5 player(in browser, HTML5)
Click here to listen with your own player(launches your MP3 player)

CYYT 051900Z 14009KT 15SM FEW030 FEW130 18/12 A3013 RMK SC1AC1 SLP208 DENSITY ALT 700FT

CYYT Flight Activity (Flightaware)

Listeners: 0 out of 1273 total

Gander Radio (International Air Radio): 122.375

CYYZ Apron (Archives)
Toronto, Ontario, Canada

Feed Status: UP
Listen in your browser - HTML5 player(in browser, HTML5)
Click here to listen with your own player(launches your MP3 player)

CYYZ 051900Z 25015G20KT 220V280 15SM SCT060 23/10 A3004 RMK CU3 SLP172 DENSITY ALT 1500FT

CYYZ Flight Activity (Flightaware)

Listeners: 0 out of 1273 total

Toronto Apron (Backup): 122.825
Toronto Apron (North): 122.275
Toronto Apron (South): 122.075

CYYZ Apron (Backup) (Archives)
Toronto, Ontario, Canada

Feed Status: UP
Listen in your browser - HTML5 player(in browser, HTML5)
Click here to listen with your own player(launches your MP3 player)

CYYZ 051900Z 25015G20KT 220V280 15SM SCT060 23/10 A3004 RMK CU3 SLP172 DENSITY ALT 1500FT

CYYZ Flight Activity (Flightaware)

Listeners: 0 out of 1273 total

Toronto Apron (Backup): 122.825

CYYZ Apron (North) (Archives)
Toronto, Ontario, Canada

Feed Status: UP
Listen in your browser - HTML5 player(in browser, HTML5)
Click here to listen with your own player(launches your MP3 player)

CYYZ 051900Z 25015G20KT 220V280 15SM SCT060 23/10 A3004 RMK CU3 SLP172 DENSITY ALT 1500FT

CYYZ Flight Activity (Flightaware)

Listeners: 0 out of 1273 total

Toronto Apron (North): 122.275

CYYZ Apron (South) (Archives)
Toronto, Ontario, Canada

Feed Status: UP
Listen in your browser - HTML5 player(in browser, HTML5)
Click here to listen with your own player(launches your MP3 player)

CYYZ 051900Z 25015G20KT 220V280 15SM SCT060 23/10 A3004 RMK CU3 SLP172 DENSITY ALT 1500FT

CYYZ Flight Activity (Flightaware)

Listeners: 0 out of 1273 total

Toronto Apron (South): 122.075

CYYZ Apron Coordinator (Archives)
Toronto, Ontario, Canada

Feed Status: UP
Listen in your browser - HTML5 player(in browser, HTML5)
Click here to listen with your own player(launches your MP3 player)

CYYZ 051900Z 25015G20KT 220V280 15SM SCT060 23/10 A3004 RMK CU3 SLP172 DENSITY ALT 1500FT

CYYZ Flight Activity (Flightaware)

Listeners: 0 out of 1273 total

Toronto Apron Coordinator: 122.875

CYYZ Arrival (Archives)
Toronto, Ontario, Canada

Feed Status: UP
Listen in your browser - HTML5 player(in browser, HTML5)
Click here to listen with your own player(launches your MP3 player)

CYYZ 051900Z 25015G20KT 220V280 15SM SCT060 23/10 A3004 RMK CU3 SLP172 DENSITY ALT 1500FT

CYYZ Flight Activity (Flightaware)

Listeners: 4 out of 1273 total

Toronto Terminal (Arrivals): 132.800
Toronto Terminal (Arrivals): 124.475
Toronto Terminal (Arrivals): 125.400

CYYZ ATIS (Archives)
Toronto, Ontario, Canada

Feed Status: UP
Listen in your browser - HTML5 player(in browser, HTML5)
Click here to listen with your own player(launches your MP3 player)

CYYZ 051900Z 25015G20KT 220V280 15SM SCT060 23/10 A3004 RMK CU3 SLP172 DENSITY ALT 1500FT

CYYZ Flight Activity (Flightaware)

Listeners: 0 out of 1273 total

Toronto ATIS: 120.825

CYYZ Clearance Delivery (Archives)
Toronto, Ontario, Canada

Feed Status: UP
Listen in your browser - HTML5 player(in browser, HTML5)
Click here to listen with your own player(launches your MP3 player)

CYYZ 051900Z 25015G20KT 220V280 15SM SCT060 23/10 A3004 RMK CU3 SLP172 DENSITY ALT 1500FT

CYYZ Flight Activity (Flightaware)

Listeners: 2 out of 1273 total

Emergency/Guard: 121.500
Toronto Clearance Delivery: 121.300

CYYZ Departure (Archives)
Toronto, Ontario, Canada

Feed Status: UP
Listen in your browser - HTML5 player(in browser, HTML5)
Click here to listen with your own player(launches your MP3 player)

CYYZ 051900Z 25015G20KT 220V280 15SM SCT060 23/10 A3004 RMK CU3 SLP172 DENSITY ALT 1500FT

CYYZ Flight Activity (Flightaware)

Listeners: 3 out of 1273 total

Toronto Departure: 127.575
Toronto Departure: 128.800

CYYZ Ground (Archives)
Toronto, Ontario, Canada

Feed Status: UP
Listen in your browser - HTML5 player(in browser, HTML5)
Click here to listen with your own player(launches your MP3 player)

CYYZ 051900Z 25015G20KT 220V280 15SM SCT060 23/10 A3004 RMK CU3 SLP172 DENSITY ALT 1500FT

CYYZ Flight Activity (Flightaware)

Listeners: 0 out of 1273 total

Toronto Ground: 119.100
Toronto Ground: 121.650
Toronto Ground: 121.900

CYYZ Tower (Archives)
Toronto, Ontario, Canada

Feed Status: UP
Listen in your browser - HTML5 player(in browser, HTML5)
Click here to listen with your own player(launches your MP3 player)

CYYZ 051900Z 25015G20KT 220V280 15SM SCT060 23/10 A3004 RMK CU3 SLP172 DENSITY ALT 1500FT

CYYZ Flight Activity (Flightaware)

Listeners: 5 out of 1273 total

Pearson Tower (North): 118.700
Pearson Tower (South): 118.350

Toronto Center (Barrie) (Archives)
Toronto, Ontario, Canada

Feed Status: UP
Listen in your browser - HTML5 player(in browser, HTML5)
Click here to listen with your own player(launches your MP3 player)

CZYZ Flight Activity (Flightaware)

Listeners: 0 out of 1273 total

Toronto Center (Barrie Sector, East High): 134.575

Toronto Center (East Satellite) (Archives)
Toronto, Ontario, Canada

Feed Status: UP
Listen in your browser - HTML5 player(in browser, HTML5)
Click here to listen with your own player(launches your MP3 player)

CZYZ Flight Activity (Flightaware)

Listeners: 0 out of 1273 total

Toronto Center (East Satellite Sector): 133.400

Toronto Center (Hamilton) (Archives)
Toronto, Ontario, Canada

Feed Status: UP
Listen in your browser - HTML5 player(in browser, HTML5)
Click here to listen with your own player(launches your MP3 player)

CZYZ Flight Activity (Flightaware)

Listeners: 1 out of 1273 total

Toronto Center (Hamilton Sector, West Low): 132.475

Toronto Center (Oakville) (Archives)
Toronto, Ontario, Canada

Feed Status: UP
Listen in your browser - HTML5 player(in browser, HTML5)
Click here to listen with your own player(launches your MP3 player)

CZYZ Flight Activity (Flightaware)

Listeners: 1 out of 1273 total

Toronto Center (Oakville Sector, West High): 134.925

Toronto Center (YYZ Area)
Toronto, Ontario, Canada

Feed Status: DOWN
Offline since: 2019-12-30 19:11:04 UTC

Toronto Center (Barrie Sector, East High): 134.575
Toronto Center (Centralia Sector, West High): 125.775
Toronto Center (East Radar, Low): 124.925
Toronto Center (Hamilton Sector, West Low): 132.475
Toronto Center (Oakville Sector, West High): 134.925
Toronto Center (Simcoe Sector, East Low): 127.000
Toronto Center (Spare): 119.775
Toronto Center (Spare): 120.175

CYZD CTAF/UNICOM (Archives)
Toronto, Ontario, Canada

Feed Status: UP
Listen in your browser - HTML5 player(in browser, HTML5)
Click here to listen with your own player(launches your MP3 player)

CYZD Flight Activity (Flightaware)

Listeners: 0 out of 1273 total

CYZD Downsview UNICOM: 126.200

CYZD Unicom/CYTZ Backup (Archives)
Toronto, Ontario, Canada

Feed Status: UP
Listen in your browser - HTML5 player(in browser, HTML5)
Click here to listen with your own player(launches your MP3 player)

CYZD Flight Activity (Flightaware)

Listeners: 0 out of 1273 total

CYTZ Tower (Backup): 119.200
CYZD Downsview UNICOM: 126.200

CYZD Weather (Archives)
Toronto, Ontario, Canada

Feed Status: UP
Listen in your browser - HTML5 player(in browser, HTML5)
Click here to listen with your own player(launches your MP3 player)

CYZD Flight Activity (Flightaware)

Listeners: 0 out of 1273 total

Downsview Weather: 122.975

CYZF Ground/Tower (Archives)
Yellowknife, Northwest Territories, Canada

Feed Status: UP
Listen in your browser - HTML5 player(in browser, HTML5)
Click here to listen with your own player(launches your MP3 player)

CYZF 051900Z 28013G24KT 220V290 15SM SCT024 BKN052TCU BKN120 20/13 A2952 RMK CU4TCU2AC1 SLP004 DENSITY ALT 1900FT

CYZF Flight Activity (Flightaware)

Listeners: 0 out of 1273 total

Yellowknife Ground: 121.900
Yellowknife Tower: 118.500

CYZX App/Dep/PAR (Archives)
Greenwood, Nova Scotia, Canada

Feed Status: UP
Listen in your browser - HTML5 player(in browser, HTML5)
Click here to listen with your own player(launches your MP3 player)

CYZX 051900Z 22015G22KT 15SM SCT045 BKN065 BKN200 30/19 A2996 RMK SC4SC2CI1 SLP144

CYZX Flight Activity (Flightaware)

Listeners: 0 out of 1273 total

Greenwood Approach/Departure: 120.600
Greenwood PAR: 118.100
Greenwood Terminal: 126.200

CYZX Del/Ground (Archives)
Greenwood, Nova Scotia, Canada

Feed Status: UP
Listen in your browser - HTML5 player(in browser, HTML5)
Click here to listen with your own player(launches your MP3 player)

CYZX 051900Z 22015G22KT 15SM SCT045 BKN065 BKN200 30/19 A2996 RMK SC4SC2CI1 SLP144

CYZX Flight Activity (Flightaware)

Listeners: 0 out of 1273 total

Greenwood Clearance Delivery: 128.025
Greenwood Clearance Delivery: 283.900
Greenwood Ground: 133.750
Greenwood Ground: 289.400

CYZX Tower (Archives)
Greenwood, Nova Scotia, Canada

Feed Status: UP
Listen in your browser - HTML5 player(in browser, HTML5)
Click here to listen with your own player(launches your MP3 player)

CYZX 051900Z 22015G22KT 15SM SCT045 BKN065 BKN200 30/19 A2996 RMK SC4SC2CI1 SLP144

CYZX Flight Activity (Flightaware)

Listeners: 0 out of 1273 total

Greenwood Tower: 119.500
Greenwood Tower: 324.300

CZBA AWOS (Archives)
Burlington, Ontario, Canada

Feed Status: UP
Listen in your browser - HTML5 player(in browser, HTML5)
Click here to listen with your own player(launches your MP3 player)

METAR CZBA 051929Z AUTO 29014G25KT 7SM CLR 22/06 A3003 RMK SLP162 DENSITY ALT 1700FT ADVISORY ONLY=

CZBA Flight Activity (Flightaware)

Listeners: 0 out of 1273 total

Burlington AWOS: 122.550

CZBA CFA3 (Archives)
Burlington, Ontario, Canada

Feed Status: UP
Listen in your browser - HTML5 player(in browser, HTML5)
Click here to listen with your own player(launches your MP3 player)

METAR CZBA 051929Z AUTO 29014G25KT 7SM CLR 22/06 A3003 RMK SLP162 DENSITY ALT 1700FT ADVISORY ONLY=

CZBA Flight Activity (Flightaware)

Listeners: 0 out of 1273 total

Burlington Practice Area: 122.925

CZBA CTAF (Archives)
Burlington, Ontario, Canada

Feed Status: UP
Listen in your browser - HTML5 player(in browser, HTML5)
Click here to listen with your own player(launches your MP3 player)

METAR CZBA 051929Z AUTO 29014G25KT 7SM CLR 22/06 A3003 RMK SLP162 DENSITY ALT 1700FT ADVISORY ONLY=

CZBA Flight Activity (Flightaware)

Listeners: 0 out of 1273 total

Burlington CTAF: 123.500

CZBB Tower (Inner) (Archives)
Boundary Bay, British Columbia, Canada

Feed Status: UP
Listen in your browser - HTML5 player(in browser, HTML5)
Click here to listen with your own player(launches your MP3 player)

CZBB Flight Activity (Flightaware)

Listeners: 0 out of 1273 total

Boundary Bay Tower (Inner): 118.100